{"data":{"norad_id":69008,"intl_designator":"2026-100AE","name":"YAM-14","alt_names":[],"object_type":"PAYLOAD","status":"ACTIVE","operator":null,"country":"US","launch_date":"2026-05-03","launch_site_code":"AFWTR","launch_vehicle":null,"mission":null,"orbit_class":"UNKNOWN","rcs_meters":null,"size_class":null,"mass_kg":null,"dimensions":null,"purposes":[],"wikipedia_slug":null,"has_3d_model":false,"image_url":null,"decayed_at":null,"tle_current":{"epoch":"2026-09-20T02:07:05.848032Z","epoch_age_seconds":54588,"freshness":"FRESH","line1":"1 69008U 26100AE  26263.08826213  .00000494  00000+0  56316-4 0  9992","line2":"2 69008  97.7751 158.8847 0001601  66.9691 293.1696 14.90411103 20829","mean_motion":14.90411103,"eccentricity":0.0001601,"inclination_deg":97.7751,"raan_deg":158.8847,"arg_perigee_deg":66.9691,"mean_anomaly_deg":293.1696,"bstar":5.6316e-5,"rev_number":2082,"period_min":96.617637717639,"perigee_km":595.53612662688,"apogee_km":597.76945431779,"semimajor_km":6974.7897904723,"source":"CELESTRAK","updated_at":"2026-09-20T09:00:24.627986Z"}}}